Location: Newark
(13.6797°N, 8.5297°E)
Time: 01:47:34
(UTC+00:00)

Courier 1B Rocket - Visible Passes

Search period start: 20 January 2020 00:00
Search period end: 30 January 2020 00:00
Orbit: 920 x 1202 km, 28.2° (Epoch: 19 January)

Date Brightness Start Highest point End Pass type
(mag) Time Alt. Az. Time Alt. Az. Time Alt. Az.
20 Jan 5.3 17:52:04 10° NW 17:58:01 46° NNE 18:03:51 11° E visible
20 Jan 5.7 19:45:21 10° WNW 19:50:16 49° WSW 19:50:16 49° WSW visible
21 Jan 4.9 18:44:16 10° WNW 18:50:30 84° SSW 18:53:49 30° ESE visible
21 Jan 7.4 20:38:57 10° W 20:40:14 15° WSW 20:40:14 15° WSW visible
22 Jan 4.9 17:43:17 10° WNW 17:49:29 67° NNE 17:55:46 10° ESE visible
22 Jan 6.1 19:37:12 10° W 19:42:49 35° SSW 19:43:54 33° S visible
23 Jan 5.5 18:35:48 10° WNW 18:41:52 54° SSW 18:47:39 12° SE visible
23 Jan 7.5 20:32:10 10° WSW 20:34:06 13° SW 20:34:06 13° SW visible
24 Jan 5.0 17:34:37 10° WNW 17:40:54 82° SSW 17:47:11 10° ESE visible
24 Jan 6.9 19:29:31 10° W 19:34:10 22° SSW 19:37:55 13° S visible
25 Jan 6.4 18:27:38 10° W 18:33:11 34° SSW 18:38:48 10° SSE visible
26 Jan 7.4 19:22:55 10° SW 19:25:34 13° SSW 19:28:13 10° S visible
27 Jan 7.8 05:01:43 10° S 05:05:56 15° SSE 05:10:09 10° ESE visible
27 Jan 7.2 18:19:58 10° WSW 18:24:31 21° SSW 18:29:04 10° SSE visible
29 Jan 7.5 04:51:12 10° SSW 04:57:10 24° SSE 05:03:11 10° E visible
29 Jan 7.6 18:13:31 10° SW 18:15:53 12° SSW 18:18:14 10° S visible
